Dewpoint
73 74 74 73 72 70 69 69 71 73 73 72 72 71 71 71 72 72 71 71 70 69 69 69 70 71 68 69 71 71 70 70 67 68 67 68 67 66 66 66 66 66 65
73 74 73 71 69 68 67 67 73 73 72 72 71 71 70 70 70 70 68 67 68 69 69 70 69 69 71 71 69 70 69 69 68 67 65 65 65 65 63 63 64 65 65
73 72 69 68 68 68 67 70 73 72 71 70 70 70 69 69 68 69 69 69 69 68 69 69 69 69 69 68 69 69 69 70 69 67 64 64 63 63 62 62 63 64 64
71 69 68 68 68 69 72 73 72 72 71 70 69 69 69 68 69 69 68 68 69 69 69 69 68 69 69 69 68 69 68 67 66 65 63 62 63 63 62 60 60 63 63
68 68 69 70 70 72 72 73 72 71 70 69 69 68 67 67 66 68 68 67 68 67 68 68 69 68 67 67 66 68 67 66 64 63 62 62 62 61 60 61 60 61 61
70 69 70 70 71 72 72 72 71 71 70 70 69 67 67 64 61 62 66 67 67 67 67 68 67 64 63 64 65 65 67 66 64 62 62 62 62 63 62 61 60 58 58
70 70 71 70 70 72 72 71 71 71 71 70 69 68 68 67 59 59 63 66 67 67 67 67 65 60 63 65 64 62 63 62 64 65 62 62 62 63 62 61 60 60 59
65 70 70 70 71 72 72 72 72 71 71 70 69 69 69 68 59 57 60 67 67 67 67 67 66 64 64 65 66 65 65 65 65 62 65 65 64 63 63 62 61 61 59
61 69 70 70 70 71 71 72 72 71 71 70 70 70 69 69 58 56 59 65 66 67 67 67 67 66 61 60 65 65 65 65 59 59 59 59 59 59 61 62 60 58 59
65 65 65 66 66 67 67 67 67 69 68 67 67 68 66 69 60 55 58 63 63 63 67 67 61 64 57 57 65 65 64 65 65 63 63 61 61 61 59 63 61 60 60
63 63 63 63 63 64 65 65 65 65 64 65 65 65 66 65 66 56 54 65 63 62 61 63 63 57 53 53 56 65 63 64 64 65 64 63 63 63 61 63 63 61 59
63 63 64 64 64 65 66 67 65 65 65 65 64 63 63 67 60 59 54 55 63 65 63 63 63 54 52 51 54 56 54 59 62 62 62 62 62 61 62 62 63 63 62
60 60 61 61 62 64 64 64 63 63 63 63 64 63 63 63 65 56 54 53 55 65 68 65 58 51 50 51 52 52 53 62 61 61 60 60 61 61 63 63 63 64 64
58 59 60 60 60 62 61 61 62 64 64 64 63 63 63 64 64 65 66 60 54 58 62 62 62 59 57 60 57 56 62 63 61 60 60 61 61 61 61 61 60 61 60
58 58 58 58 59 60 60 61 60 60 55 57 58 60 61 62 63 59 59 58 58 59 61 62 63 64 63 63 63 64 64 63 63 62 64 62 60 60 61 61 61 60 59
58 57 56 55 57 58 59 61 51 49 45 44 43 44 53 52 48 45 47 46 49 51 61 62 62 62 62 62 61 58 58 58 59 58 58 59 59 59 58 60 61 60 59
59 58 55 53 55 57 57 59 58 57 46 45 45 43 42 42 42 44 44 44 45 50 62 62 61 62 61 60 60 59 58 58 58 57 57 56 56 57 56 58 57 57 58
57 53 55 55 54 54 56 58 59 58 58 58 52 49 47 44 43 44 42 49 56 54 62 62 62 63 61 60 60 60 59 57 57 56 57 57 56 56 56 57 58 58 59
54 55 56 55 54 54 55 55 58 58 58 59 58 54 54 49 45 43 46 60 60 59 60 63 64 64 62 60 59 59 59 58 58 57 57 57 57 57 56 55 54 51 53
54 54 53 53 53 53 53 53 54 58 58 58 58 59 59 56 59 58 58 59 60 59 59 58 59 58 58 57 56 56 56 55 55 55 55 55 55 55 54 54 54 53 54
52 52 53 51 51 50 51 51 54 56 57 58 59 56 45 59 58 58 58 58 58 58 57 56 56 56 57 56 55 55 55 54 55 54 55 55 55 54 54 53 52 51 50
52 52 53 53 54 54 53 52 53 55 58 58 58 56 49 57 56 56 55 55 55 55 56 56 54 54 55 55 55 54 53 53 53 53 53 52 52 52 52 51 50 49 46
53 53 54 55 55 54 55 56 57 57 59 58 58 57 56 55 55 55 54 54 54 54 54 53 52 52 52 52 53 52 51 51 52 53 53 53 51 50 49 48 47 45 42
52 53 54 54 54 56 56 56 58 53 57 57 57 56 56 55 53 53 53 52 52 52 52 50 49 46 45 42 41 41 42 44 47 49 50 48 48 46 48 48 47 47 46
53 54 55 55 55 55 56 56 57 58 57 57 56 56 55 54 53 52 53 52 52 50 46 42 39 39 38 37 36 35 33 32 42 41 45 46 46 47 47 46 46 44 44
53 55 55 56 56 56 56 56 56 56 56 57 55 54 54 52 51 50 50 49 47 43 38 37 36 36 35 35 35 32 31 32 38 36 43 43 42 41 41 41 42 40 40
Lifted_Index
-7 -8 -7 -7 -6 -4 -4 -4 -6 -7 -6 -6 -5 -4 -4 -3 -3 -3 -2 -2 -2 -2 -1 -2 -2 -3 -3 -3 -3 -3 -2 -2 -2 -2 -1 -0 0 1 1 1 1 1 1
-8 -7 -7 -6 -5 -4 -3 -4 -6 -7 -6 -5 -5 -4 -3 -3 -3 -3 -2 -2 -2 -2 -2 -2 -3 -3 -3 -3 -3 -3 -2 -2 -2 -2 -1 -1 -0 0 0 0 1 1 1
-8 -7 -7 -6 -5 -4 -5 -6 -6 -6 -6 -5 -4 -4 -3 -3 -2 -2 -2 -2 -2 -3 -3 -3 -3 -3 -3 -3 -3 -3 -2 -2 -1 -1 -1 -1 -1 -1 -0 0 1 1 1
-8 -8 -7 -7 -6 -6 -7 -7 -7 -6 -5 -5 -4 -4 -3 -3 -2 -2 -2 -2 -2 -3 -3 -3 -3 -3 -3 -3 -3 -2 -2 -1 -1 -1 -1 -1 -1 -1 -0 0 1 1 1
-8 -8 -8 -7 -7 -8 -8 -8 -7 -6 -5 -4 -4 -3 -3 -3 -2 -2 -2 -2 -2 -2 -2 -3 -3 -2 -2 -2 -2 -2 -2 -1 -1 -1 -1 -1 -1 -1 -0 0 0 1 0
-7 -8 -7 -7 -8 -8 -8 -8 -7 -6 -5 -5 -4 -3 -3 -3 -2 -2 -2 -2 -2 -2 -2 -2 -2 -1 -0 -0 -1 -2 -1 -1 -1 -0 -0 -1 -1 -1 -0 -0 0 -0 -0
-6 -7 -7 -7 -8 -8 -8 -8 -7 -7 -6 -5 -4 -4 -3 -3 -2 -2 -2 -2 -2 -2 -2 -2 -1 -0 0 -0 -1 -1 -1 -0 0 0 -0 -0 -1 -1 -0 -0 0 -0 -0
-5 -6 -7 -7 -7 -8 -8 -8 -8 -7 -7 -6 -5 -4 -4 -3 -2 -1 -1 -2 -2 -2 -2 -2 -1 -0 0 -0 -1 -1 -0 0 1 1 1 0 0 -0 0 0 0 0 0
-4 -5 -7 -7 -7 -7 -8 -8 -7 -7 -6 -6 -5 -5 -4 -3 -2 -1 -1 -1 -2 -2 -2 -2 -1 -1 0 0 -0 -0 -0 0 1 1 1 2 1 1 1 1 1 1 1
-3 -5 -6 -7 -7 -7 -7 -7 -7 -6 -6 -5 -5 -4 -4 -3 -2 -2 -1 -1 -1 -1 -2 -1 -1 -1 -0 0 -0 -0 -0 0 1 1 2 2 2 2 2 1 1 1 1
-3 -4 -5 -6 -6 -6 -6 -6 -5 -5 -4 -4 -3 -3 -3 -2 -2 -1 -1 -1 -1 -1 -1 -1 -1 -0 0 0 0 -0 0 0 1 1 1 2 2 3 3 2 2 2 2
-1 -2 -3 -4 -4 -4 -4 -3 -3 -3 -3 -2 -2 -1 -1 -1 -1 -0 -0 0 -0 -1 -1 -1 -1 -0 0 -0 0 0 1 1 1 1 1 1 2 2 2 3 3 3 3
1 1 0 -0 -1 -1 -1 -1 -1 -1 -1 -1 -0 0 0 0 0 1 1 1 1 0 -1 -2 -1 -1 -0 -0 -0 0 1 1 1 1 1 1 2 2 2 2 3 3 3
2 2 2 2 2 1 1 1 1 0 0 1 1 1 1 1 1 1 2 2 2 2 -0 -1 -1 -1 -1 -1 -0 -0 0 0 0 0 1 1 2 2 2 2 3 3 3
2 3 3 3 3 3 3 3 2 2 2 2 2 2 2 1 1 1 2 2 2 2 0 -0 -0 -0 -1 -0 -0 0 0 1 1 1 1 1 2 2 2 2 3 3 3
2 3 3 4 3 3 3 3 4 4 4 3 3 3 2 1 1 1 1 1 1 1 0 -0 -0 -0 -0 -0 0 1 1 1 1 1 1 2 2 2 2 2 2 3 3
3 3 4 4 4 4 3 3 4 4 4 4 4 3 3 2 1 0 0 0 1 0 -0 -0 0 -0 -0 0 1 1 2 2 2 2 2 2 2 2 2 3 3 3 3
4 4 4 4 5 5 4 4 3 4 4 4 5 5 4 3 2 1 0 0 0 -0 -0 -0 0 0 0 1 2 2 2 2 2 2 2 2 3 3 3 3 3 4 4
5 5 5 5 5 5 5 4 3 3 3 4 5 5 4 3 3 2 1 1 0 0 0 0 1 1 1 1 2 2 2 2 3 3 3 3 3 4 4 4 4 4 4
5 5 6 5 5 5 5 4 3 2 2 3 4 4 4 4 3 3 2 1 1 1 1 2 2 2 2 2 2 2 3 3 3 3 4 4 4 4 5 5 5 5 5
5 5 5 5 4 4 4 4 3 2 1 2 2 3 3 3 3 3 3 2 2 2 3 3 3 4 4 4 3 3 3 4 4 4 4 5 5 5 6 6 6 6 6
4 4 4 3 3 3 3 2 1 1 1 1 1 2 2 3 3 3 3 3 3 3 3 4 4 4 4 4 4 4 4 5 5 5 6 6 6 6 6 6 6 6 6
3 3 2 2 1 1 1 1 0 -0 -0 0 1 1 2 2 3 3 3 3 3 3 3 3 4 4 4 4 5 5 6 6 6 7 7 7 7 6 6 5 5 6 6
2 2 2 1 1 1 1 0 -0 -0 -0 -0 0 1 1 2 2 2 2 2 2 2 3 3 3 4 4 5 6 7 8 8 8 8 7 7 7 6 6 5 5 6 6
2 1 1 1 1 1 1 0 0 -0 -0 -0 0 0 1 1 2 2 2 2 2 3 3 3 4 4 5 6 7 9 10 11 11 10 8 8 7 6 6 6 6 7 7
1 1 1 1 1 1 1 1 0 -0 -0 -0 -0 0 1 1 2 2 3 3 3 3 4 4 5 5 6 7 8 10 11 12 11 10 9 8 8 7 7 7 7 7 7